sat.trackr.live / text

‹ back to catalog

STARLINK-35827

NORAD 66365 · 2025-254T

PAYLOAD ACTIVE UNKNOWN

§ Identity

Operator
Country
US
Launch date
2025-11-06
Launch site
AFWTR
Launch vehicle
Mass (kg)
RCS (m²)

Purposes: comms

External: N2YO · Heavens-Above · Gunter

§ Orbital elements

Epoch: 2026-09-20T14:07:51.898368Z

Period
94.01 min
Inclination
53.1610°
Eccentricity
0.0001271
Mean motion
15.31712219 rev/d
Perigee alt
469.8 km
Apogee alt
471.6 km
Semi-major
6,848.8 km
B*
6.0495e-4
RAAN
45.8861°
Arg perigee
86.9795°
Mean anomaly
273.1352°
Rev number
4,883

§ Raw data

STARLINK-358271 66365U 25254T   26263.58879512  .00018461  00000+0  60495-3 0  99942 66365  53.1610  45.8861 0001271  86.9795 273.1352 15.31712219 48839

JSON: /api/v1/satellites/66365 · /tle

For live sub-satellite position, see the globe view (requires WebGL).

§ Visibility from observer

Set your observer location to see the next 7 days of passes ≥ 10°. The values pass through the URL so the page stays shareable.

No JS? Fill the form by hand. The geolocation button needs JavaScript.